CAPE
0 0 0 0 0 0 0 0 0 0 0 0 0 0 0 0 0 0 0 0 0 0 0 1 26 30 14 14 33 10 6 21 8 2 15 17 5 15 12 17 31 21 10 13 14 7 13 35 24
0 0 0 0 0 0 0 0 0 0 0 0 0 0 0 0 0 0 0 0 0 0 0 0 23 6 8 9 12 14 12 1 7 2 7 9 5 3 8 8 5 4 7 2 12 12 14 22 14
0 0 0 0 0 0 0 0 0 0 0 0 0 0 0 0 0 0 0 0 0 0 0 0 7 6 9 9 4 8 13 16 9 6 9 6 9 9 3 9 10 7 9 9 7 4 6 5 4
0 0 0 0 0 0 0 0 0 0 0 0 0 0 0 0 0 0 0 0 0 0 0 4 7 6 5 8 5 8 9 6 4 7 7 8 8 7 6 4 5 5 5 2 2 1 0 0 0
0 0 0 0 0 0 0 0 0 0 0 0 0 0 0 0 0 0 0 0 0 0 0 4 7 6 7 7 4 10 7 8 8 9 6 8 3 3 2 0 0 0 0 0 0 0 0 0 0
0 0 0 0 0 0 0 0 0 0 0 0 0 0 0 0 0 0 0 0 0 0 0 0 4 6 4 12 7 8 7 6 5 6 3 0 0 0 0 0 0 0 0 0 0 0 0 0 0
0 0 0 0 0 0 0 0 0 0 0 0 0 0 0 0 0 0 0 0 0 0 0 0 1 6 6 5 3 5 6 5 3 2 2 1 0 0 0 0 0 0 0 0 0 0 0 0 0
0 0 0 0 0 0 0 0 0 0 0 0 0 0 0 0 0 0 0 0 0 0 0 0 0 0 2 4 5 5 3 4 1 0 0 0 0 0 0 0 0 0 0 0 0 0 0 0 0
0 0 0 0 0 0 0 0 0 0 0 0 0 0 0 0 0 0 0 0 0 0 0 0 0 0 0 0 2 4 5 3 0 0 0 0 0 0 0 0 0 0 0 0 0 0 0 0 0
0 0 0 0 0 0 0 0 0 0 0 0 0 0 0 0 0 0 0 0 0 0 0 0 0 0 0 0 0 0 0 0 0 0 0 0 0 0 0 0 0 0 0 0 0 0 0 0 0
0 0 0 0 0 0 0 0 0 0 0 0 0 0 0 0 0 0 0 0 0 0 0 0 0 0 0 0 0 0 0 0 0 0 0 0 0 0 0 0 0 0 0 0 0 0 0 0 0
0 0 0 0 0 0 0 0 0 0 0 0 0 0 0 0 0 0 0 0 0 0 0 0 0 0 0 0 0 0 0 0 0 0 0 0 0 0 0 0 0 0 0 0 0 0 0 0 0
0 0 0 0 0 0 0 0 0 0 0 0 0 0 0 0 0 0 0 0 0 0 0 0 0 0 0 0 0 0 0 0 0 0 0 0 0 0 0 0 0 0 0 0 0 0 0 0 0
0 0 0 0 0 0 0 0 0 0 0 0 0 0 0 0 0 0 0 0 0 0 0 0 0 0 0 0 0 0 0 0 0 0 0 0 0 0 0 0 0 0 0 0 0 0 0 0 0
0 0 0 0 0 0 0 0 0 0 0 0 0 0 0 0 0 0 0 0 0 0 0 0 0 0 0 0 0 0 0 0 0 0 0 0 0 0 0 0 0 0 0 0 0 0 0 0 0
0 0 0 0 0 0 0 0 0 0 0 0 0 0 0 0 0 0 0 0 0 0 0 0 0 0 0 0 0 0 0 0 0 0 0 0 0 0 0 0 0 0 0 0 0 0 0 0 0
0 0 0 0 0 0 0 0 0 0 0 0 0 0 0 0 0 0 0 0 0 0 0 0 0 0 0 0 0 0 0 0 0 0 0 0 0 0 0 0 0 0 0 0 0 0 0 0 0
0 0 0 0 0 0 0 0 0 0 0 0 0 0 0 0 0 0 0 0 0 0 0 0 0 0 0 0 0 0 0 0 0 0 0 0 0 0 0 0 0 0 0 0 0 0 0 0 0
0 0 0 0 0 0 0 0 0 0 0 0 0 0 0 0 0 0 0 0 0 0 0 0 0 0 0 0 0 0 0 0 0 0 0 0 0 0 0 0 0 0 0 0 0 0 0 0 0
0 0 0 0 0 0 0 0 0 0 0 0 0 0 0 0 0 0 0 0 0 0 0 0 0 0 0 0 0 0 0 0 0 0 0 0 0 0 0 0 0 0 0 0 0 0 0 0 0
0 0 0 0 0 0 0 0 0 0 0 0 0 0 0 0 0 0 0 0 0 0 0 0 0 0 0 0 0 0 0 0 0 0 0 0 0 0 0 0 0 0 0 0 0 0 0 0 0
0 0 0 0 0 0 0 0 0 0 0 0 0 0 0 0 0 0 0 0 0 0 0 0 0 0 0 0 0 0 0 0 0 0 0 0 0 0 0 0 0 0 0 0 0 0 0 0 0
0 0 0 0 0 0 0 0 0 0 0 0 0 0 0 0 0 0 0 0 0 0 0 0 0 0 0 0 0 0 0 0 0 0 0 0 0 0 0 0 0 0 0 0 0 0 0 0 0
0 0 0 0 0 0 0 0 0 0 0 0 0 0 0 0 0 0 0 0 0 0 0 0 0 0 0 0 0 0 0 0 0 0 0 0 0 0 0 0 0 0 0 0 0 0 0 0 0
0 0 0 0 0 0 0 0 0 0 0 0 0 0 0 0 0 0 0 0 0 0 0 0 0 0 0 0 0 0 0 0 0 0 0 0 0 0 0 0 0 0 0 0 0 0 0 0 0
0 0 0 0 0 0 0 0 0 0 0 0 0 0 0 0 0 0 0 0 0 0 0 0 0 0 0 0 0 0 0 0 0 0 0 0 0 0 0 0 0 0 0 0 0 0 0 0 0
0 0 0 0 0 0 0 0 0 0 0 0 0 0 0 0 0 0 0 0 0 0 0 0 0 0 0 0 0 0 0 0 0 0 0 0 0 0 0 0 0 0 0 0 0 0 0 0 0
0 0 0 0 0 0 0 0 0 0 0 0 0 0 0 0 0 0 0 0 0 0 0 0 0 0 0 0 0 0 0 0 0 0 0 0 0 0 0 0 0 0 0 0 0 0 0 0 0
0 0 0 0 0 0 0 0 0 0 0 0 0 0 0 0 0 0 0 0 0 0 0 0 0 0 0 0 0 0 0 0 0 0 0 0 0 0 0 0 0 0 0 0 0 0 0 0 0
0 0 0 0 0 0 0 0 0 0 0 0 0 0 0 0 0 0 0 0 0 0 0 0 0 0 0 0 0 0 0 0 0 0 0 0 0 0 0 0 0 0 0 0 0 0 0 0 0
CIN
-0 -0 -0 -0 -0 -0 -0 -0 -0 -0 -0 -0 -0 -0 -0 -0 -0 -0 -0 -0 -0 -0 -0 -0 -0 -0 -2 -0 -1 -0 -0 -1 -0 -0 -2 -2 -0 -0 -0 -1 -2 -2 -3 -2 -1 -0 -0 -1 -3
-0 -0 -0 -0 -0 -0 -0 -0 -0 -0 -0 -0 -0 -0 -0 -0 -0 -0 -0 -0 -0 -0 -0 -0 -2 -2 -0 -2 -2 -1 -1 -0 -1 -3 -0 -0 -1 -0 -0 -1 -2 -2 -1 -0 -1 -0 -0 -3 -3
-0 -0 -0 -0 -0 -0 -0 -0 -0 -0 -0 -0 -0 -0 -0 -0 -0 -0 -0 -0 -0 -0 -0 -0 -0 -0 -0 -1 -0 -0 -0 -1 -0 -0 -0 -0 -0 -0 -0 -1 -0 -0 -1 -1 -0 -0 -0 -0 -0
-0 -0 -0 -0 -0 -0 -0 -0 -0 -0 -0 -0 -0 -0 -0 -0 -0 -0 -0 -0 -0 -0 -0 -2 -0 -0 -1 -0 -1 -0 -0 -0 -0 -0 -0 -0 -0 -0 -0 -0 -0 -1 -1 -0 -0 -0 -0 -0 -0
-0 -0 -0 -0 -0 -0 -0 -0 -0 -0 -0 -0 -0 -0 -0 -0 -0 -0 -0 -0 -0 -0 -0 -2 -0 -0 -0 -0 -1 -0 -0 -0 -0 -0 -0 -0 -0 -0 -0 -0 -0 -0 -0 -0 -0 -0 -0 -0 -0
-0 -0 -0 -0 -0 -0 -0 -0 -0 -0 -0 -0 -0 -0 -0 -0 -0 -0 -0 -0 -0 -0 -0 -0 -0 -0 -0 -0 -0 -0 -0 -0 -0 -0 -0 -0 -0 -0 -0 -0 -0 -0 -0 -0 -0 -0 -0 -0 -0
-0 -0 -0 -0 -0 -0 -0 -0 -0 -0 -0 -0 -0 -0 -0 -0 -0 -0 -0 -0 -0 -0 -0 -0 -0 -0 -0 -0 -0 -0 -0 -0 -0 -0 -0 -0 -0 -0 -0 -0 -0 -0 -0 -0 -0 -0 -0 -0 -0
-0 -0 -0 -0 -0 -0 -0 -0 -0 -0 -0 -0 -0 -0 -0 -0 -0 -0 -0 -0 -0 -0 -0 -0 -0 -0 -2 -0 -0 -0 -0 -0 -0 -0 -0 -0 -0 -0 -0 -0 -0 -0 -0 -0 -0 -0 -0 -0 -0
-0 -0 -0 -0 -0 -0 -0 -0 -0 -0 -0 -0 -0 -0 -0 -0 -0 -0 -0 -0 -0 -0 -0 -0 -0 -0 -0 -0 -1 -0 -0 -0 -0 -0 -0 -0 -0 -0 -0 -0 -0 -0 -0 -0 -0 -0 -0 -0 -0
-0 -0 -0 -0 -0 -0 -0 -0 -0 -0 -0 -0 -0 -0 -0 -0 -0 -0 -0 -0 -0 -0 -0 -0 -0 -0 -0 -0 -0 -0 -0 -0 -0 -0 -0 -0 -0 -0 -0 -0 -0 -0 -0 -0 -0 -0 -0 -0 -0
-0 -0 -0 -0 -0 -0 -0 -0 -0 -0 -0 -0 -0 -0 -0 -0 -0 -0 -0 -0 -0 -0 -0 -0 -0 -0 -0 -0 -0 -0 -0 -0 -0 -0 -0 -0 -0 -0 -0 -0 -0 -0 -0 -0 -0 -0 -0 -0 -0
-0 -0 -0 -0 -0 -0 -0 -0 -0 -0 -0 -0 -0 -0 -0 -0 -0 -0 -0 -0 -0 -0 -0 -0 -0 -0 -0 -0 -0 -0 -0 -0 -0 -0 -0 -0 -0 -0 -0 -0 -0 -0 -0 -0 -0 -0 -0 -0 -0
-0 -0 -0 -0 -0 -0 -0 -0 -0 -0 -0 -0 -0 -0 -0 -0 -0 -0 -0 -0 -0 -0 -0 -0 -0 -0 -0 -0 -0 -0 -0 -0 -0 -0 -0 -0 -0 -0 -0 -0 -0 -0 -0 -0 -0 -0 -0 -0 -0
-0 -0 -0 -0 -0 -0 -0 -0 -0 -0 -0 -0 -0 -0 -0 -0 -0 -0 -0 -0 -0 -0 -0 -0 -0 -0 -0 -0 -0 -0 -0 -0 -0 -0 -0 -0 -0 -0 -0 -0 -0 -0 -0 -0 -0 -0 -0 -0 -0
-0 -0 -0 -0 -0 -0 -0 -0 -0 -0 -0 -0 -0 -0 -0 -0 -0 -0 -0 -0 -0 -0 -0 -0 -0 -0 -0 -0 -0 -0 -0 -0 -0 -0 -0 -0 -0 -0 -0 -0 -0 -0 -0 -0 -0 -0 -0 -0 -0
-0 -0 -0 -0 -0 -0 -0 -0 -0 -0 -0 -0 -0 -0 -0 -0 -0 -0 -0 -0 -0 -0 -0 -0 -0 -0 -0 -0 -0 -0 -0 -0 -0 -0 -0 -0 -0 -0 -0 -0 -0 -0 -0 -0 -0 -0 -0 -0 -0
-0 -0 -0 -0 -0 -0 -0 -0 -0 -0 -0 -0 -0 -0 -0 -0 -0 -0 -0 -0 -0 -0 -0 -0 -0 -0 -0 -0 -0 -0 -0 -0 -0 -0 -0 -0 -0 -0 -0 -0 -0 -0 -0 -0 -0 -0 -0 -0 -0
-0 -0 -0 -0 -0 -0 -0 -0 -0 -0 -0 -0 -0 -0 -0 -0 -0 -0 -0 -0 -0 -0 -0 -0 -0 -0 -0 -0 -0 -0 -0 -0 -0 -0 -0 -0 -0 -0 -0 -0 -0 -0 -0 -0 -0 -0 -0 -0 -0
-0 -0 -0 -0 -0 -0 -0 -0 -0 -0 -0 -0 -0 -0 -0 -0 -0 -0 -0 -0 -0 -0 -0 -0 -0 -0 -0 -0 -0 -0 -0 -0 -0 -0 -0 -0 -0 -0 -0 -0 -0 -0 -0 -0 -0 -0 -0 -0 -0
-0 -0 -0 -0 -0 -0 -0 -0 -0 -0 -0 -0 -0 -0 -0 -0 -0 -0 -0 -0 -0 -0 -0 -0 -0 -0 -0 -0 -0 -0 -0 -0 -0 -0 -0 -0 -0 -0 -0 -0 -0 -0 -0 -0 -0 -0 -0 -0 -0
-0 -0 -0 -0 -0 -0 -0 -0 -0 -0 -0 -0 -0 -0 -0 -0 -0 -0 -0 -0 -0 -0 -0 -0 -0 -0 -0 -0 -0 -0 -0 -0 -0 -0 -0 -0 -0 -0 -0 -0 -0 -0 -0 -0 -0 -0 -0 -0 -0
-0 -0 -0 -0 -0 -0 -0 -0 -0 -0 -0 -0 -0 -0 -0 -0 -0 -0 -0 -0 -0 -0 -0 -0 -0 -0 -0 -0 -0 -0 -0 -0 -0 -0 -0 -0 -0 -0 -0 -0 -0 -0 -0 -0 -0 -0 -0 -0 -0
-0 -0 -0 -0 -0 -0 -0 -0 -0 -0 -0 -0 -0 -0 -0 -0 -0 -0 -0 -0 -0 -0 -0 -0 -0 -0 -0 -0 -0 -0 -0 -0 -0 -0 -0 -0 -0 -0 -0 -0 -0 -0 -0 -0 -0 -0 -0 -0 -0
-0 -0 -0 -0 -0 -0 -0 -0 -0 -0 -0 -0 -0 -0 -0 -0 -0 -0 -0 -0 -0 -0 -0 -0 -0 -0 -0 -0 -0 -0 -0 -0 -0 -0 -0 -0 -0 -0 -0 -0 -0 -0 -0 -0 -0 -0 -0 -0 -0
-0 -0 -0 -0 -0 -0 -0 -0 -0 -0 -0 -0 -0 -0 -0 -0 -0 -0 -0 -0 -0 -0 -0 -0 -0 -0 -0 -0 -0 -0 -0 -0 -0 -0 -0 -0 -0 -0 -0 -0 -0 -0 -0 -0 -0 -0 -0 -0 -0
-0 -0 -0 -0 -0 -0 -0 -0 -0 -0 -0 -0 -0 -0 -0 -0 -0 -0 -0 -0 -0 -0 -0 -0 -0 -0 -0 -0 -0 -0 -0 -0 -0 -0 -0 -0 -0 -0 -0 -0 -0 -0 -0 -0 -0 -0 -0 -0 -0
-0 -0 -0 -0 -0 -0 -0 -0 -0 -0 -0 -0 -0 -0 -0 -0 -0 -0 -0 -0 -0 -0 -0 -0 -0 -0 -0 -0 -0 -0 -0 -0 -0 -0 -0 -0 -0 -0 -0 -0 -0 -0 -0 -0 -0 -0 -0 -0 -0
-0 -0 -0 -0 -0 -0 -0 -0 -0 -0 -0 -0 -0 -0 -0 -0 -0 -0 -0 -0 -0 -0 -0 -0 -0 -0 -0 -0 -0 -0 -0 -0 -0 -0 -0 -0 -0 -0 -0 -0 -0 -0 -0 -0 -0 -0 -0 -0 -0
-0 -0 -0 -0 -0 -0 -0 -0 -0 -0 -0 -0 -0 -0 -0 -0 -0 -0 -0 -0 -0 -0 -0 -0 -0 -0 -0 -0 -0 -0 -0 -0 -0 -0 -0 -0 -0 -0 -0 -0 -0 -0 -0 -0 -0 -0 -0 -0 -0
-0 -0 -0 -0 -0 -0 -0 -0 -0 -0 -0 -0 -0 -0 -0 -0 -0 -0 -0 -0 -0 -0 -0 -0 -0 -0 -0 -0 -0 -0 -0 -0 -0 -0 -0 -0 -0 -0 -0 -0 -0 -0 -0 -0 -0 -0 -0 -0 -0
Wind_Speed
23 22 17 15 15 16 17 16 14 13 17 17 17 16 13 14 15 15 10 10 15 16 18 18 19 19 18 19 18 19 19 17 16 14 14 15 16 15 15 13 13 12 12 12 12 12 9 9 8
22 19 15 13 14 17 18 14 10 14 14 14 15 15 16 16 15 11 9 14 16 17 17 19 18 18 18 18 18 18 17 16 16 15 14 13 12 14 13 13 12 12 10 10 8 9 5 2 2
20 16 13 12 13 13 15 13 11 12 13 15 16 16 15 15 15 7 8 15 15 16 18 18 17 17 18 19 19 18 17 16 15 14 13 12 11 9 11 11 10 9 6 6 4 1 2 3 3
17 15 13 13 12 13 16 10 11 11 15 16 13 16 16 18 8 7 14 15 15 17 18 17 16 17 17 18 18 18 17 15 14 14 13 11 10 8 8 7 5 5 3 3 2 3 4 6 8
15 13 12 13 13 14 17 7 6 13 14 14 14 16 17 12 11 12 14 14 15 18 19 17 17 17 17 17 17 17 16 15 13 12 9 8 7 7 6 6 6 6 7 5 5 6 8 9 9
14 13 12 13 14 16 15 2 8 11 12 11 14 14 15 14 6 10 13 13 14 17 18 16 18 18 17 17 16 15 14 14 13 13 10 7 7 7 7 7 10 10 8 8 8 8 9 9 10
13 12 11 11 14 18 15 5 6 9 11 14 8 14 16 8 4 9 10 11 13 16 16 16 16 18 18 18 16 15 13 13 15 13 8 7 9 9 9 11 12 11 10 10 10 10 10 10 11
14 12 11 11 16 15 13 9 9 9 14 9 10 14 15 5 4 6 8 9 12 14 16 15 16 17 17 18 17 14 15 13 12 10 7 9 10 13 14 13 13 13 13 12 12 12 12 12 13
14 12 10 12 18 14 15 10 12 13 10 14 15 13 17 7 6 4 4 3 10 14 16 16 16 16 19 17 16 16 16 15 15 15 19 19 18 17 17 16 16 15 15 14 14 14 14 14 14
13 11 10 12 17 15 15 14 14 13 15 17 16 17 6 8 9 9 7 8 9 15 17 17 17 18 19 16 17 16 16 16 13 19 23 22 21 20 19 19 18 17 17 16 16 15 15 15 15
13 11 14 20 17 12 15 15 18 14 20 20 17 10 3 5 10 12 10 11 16 17 18 20 19 19 18 16 16 15 12 15 17 25 25 24 23 22 22 21 19 18 18 18 17 17 16 16 16
16 9 14 17 17 12 12 14 19 14 24 21 22 2 4 8 14 16 15 13 18 17 18 21 20 19 18 15 16 15 15 13 21 27 27 25 24 24 23 21 20 19 19 18 18 18 17 18 18
13 16 21 12 11 17 12 9 14 31 30 25 17 3 9 12 16 16 14 15 15 18 17 19 20 18 18 16 14 15 17 20 24 28 28 27 25 25 24 23 21 22 19 19 18 17 17 17 18
13 18 18 4 3 11 8 6 21 27 29 25 15 10 14 17 19 13 15 17 18 17 17 18 18 18 16 16 14 16 16 22 27 29 29 28 28 26 24 22 22 21 20 18 17 17 17 19 18
9 7 13 10 10 11 14 13 18 22 28 31 32 19 23 25 18 19 20 18 17 19 18 15 19 18 18 17 17 15 19 26 29 30 29 28 28 27 24 23 22 21 18 17 17 17 18 19 19
15 16 21 16 15 11 11 13 11 19 25 27 30 31 28 31 25 22 19 19 16 15 19 17 14 18 19 18 15 14 20 28 30 30 29 28 28 29 26 24 22 17 15 15 17 17 19 19 20
19 17 14 11 13 12 12 12 13 19 24 31 32 31 34 33 30 27 22 20 16 16 16 18 15 17 18 17 13 11 25 31 30 30 29 27 27 24 16 18 17 12 13 12 15 16 17 18 19
15 14 12 8 4 12 15 17 19 20 21 27 33 35 33 34 31 28 24 20 18 15 13 16 15 17 18 14 7 10 30 32 31 29 28 25 23 17 5 10 11 11 11 14 15 16 17 19 19
11 11 11 8 13 20 20 22 18 19 20 22 26 33 36 36 36 35 22 19 14 9 9 13 13 14 15 7 6 13 34 33 31 29 27 25 23 16 7 2 9 11 12 14 15 17 18 20 18
13 16 17 6 16 21 18 16 17 20 21 21 20 18 19 23 25 27 10 13 16 14 10 9 15 13 17 8 7 17 20 33 32 30 28 24 19 15 10 7 3 8 13 15 15 16 18 19 17
14 14 17 16 23 14 14 17 18 19 21 21 20 17 15 17 20 23 24 8 10 11 10 10 11 13 14 7 8 16 19 28 35 34 30 27 22 16 14 15 13 9 3 6 14 19 20 23 21
20 15 15 16 22 14 17 12 17 19 20 21 20 18 17 18 19 20 20 18 15 13 20 13 10 8 7 8 7 7 8 33 36 34 33 30 23 19 18 22 24 26 23 29 33 30 28 25 28
18 19 19 15 16 18 16 12 12 16 18 19 20 20 20 19 20 20 21 20 22 26 30 24 17 12 8 8 8 8 11 15 23 27 34 31 26 16 18 29 37 34 27 33 36 33 34 31 29
20 21 21 17 16 18 11 12 10 13 13 16 18 19 20 20 20 20 20 19 19 22 28 29 24 18 13 8 9 9 10 15 16 21 24 34 24 12 11 30 37 35 35 39 37 36 33 32 31
19 22 20 19 18 17 14 14 16 9 11 13 16 19 20 21 22 22 22 22 20 19 22 27 28 31 19 12 11 10 10 14 15 18 21 24 29 26 11 27 35 36 37 37 36 36 35 29 25
20 19 20 21 19 18 16 15 12 9 11 13 15 16 19 22 23 23 22 22 21 20 18 18 24 32 32 25 17 14 16 20 22 24 24 24 25 27 27 29 34 36 36 36 34 36 37 32 28
20 20 17 21 20 20 17 14 12 10 11 13 15 17 19 20 22 23 24 23 22 21 21 20 19 21 26 33 35 29 24 25 25 25 25 25 23 26 28 29 34 36 37 36 35 38 39 36 33
20 20 22 20 22 21 18 13 17 12 11 13 15 17 18 20 21 23 24 24 24 23 23 23 22 22 23 25 28 33 37 34 29 29 29 28 27 26 28 29 32 36 37 36 36 38 37 37 36
22 22 20 20 20 22 20 20 22 13 12 13 15 17 18 20 21 23 24 25 25 25 25 25 25 25 26 26 28 29 32 33 33 33 32 31 31 28 29 30 33 35 37 36 37 38 38 38 38
22 22 21 24 25 23 22 21 18 15 14 15 16 18 19 20 22 24 25 27 27 28 28 28 28 27 28 28 27 27 27 28 32 35 35 34 33 31 29 29 31 35 37 37 38 40 38 39 40
Wind_Direction
310 306 318 322 319 323 312 318 317 327 322 325 322 329 333 322 319 320 4 56 89 97 101 101 102 101 87 86 72 77 81 66 52 39 35 36 38 34 38 29 25 26 27 32 33 34 36 37 33
311 317 325 323 317 308 312 315 331 322 331 337 337 327 318 312 324 345 49 95 95 99 99 101 90 89 89 82 82 71 65 60 57 50 43 38 25 34 32 30 28 28 23 27 26 32 36 54 69
314 328 330 326 316 313 318 320 330 335 331 325 322 323 317 317 319 46 38 104 95 100 105 103 93 90 88 88 86 82 69 63 57 51 44 29 25 14 23 26 18 17 10 13 16 37 172 180 171
326 326 327 321 313 317 323 335 322 337 327 326 329 315 315 297 0 37 101 104 99 107 111 105 98 94 93 91 89 82 76 63 57 53 47 30 21 10 2 355 342 351 302 233 229 207 195 188 182
336 336 329 321 313 322 339 40 37 329 331 324 322 314 312 319 332 91 108 106 105 114 118 111 107 102 100 97 93 88 79 71 61 46 17 10 356 347 335 313 276 237 223 227 221 211 202 197 194
348 349 331 319 317 330 338 44 345 340 344 341 327 321 312 300 64 100 109 108 106 116 120 108 116 111 107 105 96 92 83 75 68 65 40 349 313 303 285 272 224 222 225 219 218 215 208 207 205
1 356 349 346 333 335 340 47 358 347 337 326 351 323 305 311 72 104 110 108 110 116 118 115 113 118 117 117 105 97 89 83 89 73 10 309 273 271 265 232 225 223 223 221 222 221 217 214 209
8 5 5 8 344 345 356 14 354 346 327 359 331 316 313 305 105 104 110 112 115 120 124 120 120 123 121 123 122 107 106 93 85 68 12 292 274 246 227 229 228 224 225 228 229 225 221 217 215
347 9 9 2 350 358 348 356 360 336 328 314 307 311 293 105 116 121 120 114 123 130 132 129 130 127 137 128 121 123 120 113 112 110 214 225 228 224 223 224 224 227 228 228 226 223 223 219 220
7 12 6 4 344 348 345 342 335 326 304 298 299 292 347 102 124 137 143 140 138 142 144 140 141 143 141 131 131 128 130 125 111 198 210 214 215 218 222 221 225 229 227 227 228 230 231 233 229
10 6 342 318 341 352 342 334 318 317 285 284 290 303 59 99 129 141 146 151 151 149 150 152 148 148 144 141 138 133 116 128 138 186 202 210 216 220 221 224 231 233 232 232 236 237 239 237 231
2 16 340 337 344 352 350 335 307 314 274 281 268 4 122 130 142 149 153 152 156 155 157 159 156 152 151 143 146 145 141 133 159 192 204 212 217 220 220 229 232 237 237 240 244 245 244 237 233
37 351 321 360 359 335 350 349 320 257 256 267 280 288 148 151 156 158 156 157 157 163 161 162 160 157 155 150 144 147 152 160 175 195 206 214 217 215 226 234 239 237 247 248 255 257 254 248 245
54 359 245 132 89 355 360 159 305 265 260 265 281 169 168 169 171 158 163 168 169 167 166 165 164 163 156 156 152 155 155 170 186 202 204 207 211 221 234 243 246 250 253 264 265 266 261 251 250
103 113 229 86 68 48 19 189 203 216 249 241 246 182 186 187 175 177 179 175 174 174 169 166 168 166 164 163 162 158 164 183 197 206 204 195 198 230 242 246 251 257 269 271 272 273 267 253 252
57 59 11 44 53 81 79 190 196 232 228 245 245 210 197 201 191 190 184 181 175 173 175 171 166 168 169 167 163 160 170 194 202 200 198 193 199 217 243 254 262 279 284 284 277 275 269 262 256
33 38 54 73 79 80 126 190 215 242 238 247 248 245 212 208 203 200 194 187 180 179 176 175 172 170 169 167 164 163 186 203 203 201 199 193 195 185 262 277 284 296 292 293 289 285 279 274 269
32 45 59 91 252 322 213 230 254 261 256 253 250 246 245 216 209 204 200 193 186 183 181 177 176 173 171 167 177 268 245 216 207 198 196 189 185 169 151 299 298 297 295 289 287 283 282 277 274
46 38 42 115 52 288 264 284 312 328 326 311 285 256 247 242 244 223 198 192 187 199 200 185 182 176 171 184 237 271 213 217 213 200 196 191 187 175 165 208 298 295 291 287 285 282 277 274 277
23 5 7 61 10 345 347 343 342 348 338 330 327 311 284 276 277 272 190 194 189 188 200 209 184 181 176 194 246 275 267 224 216 207 202 193 186 180 176 177 250 292 289 284 281 279 275 272 272
28 24 5 8 324 19 21 348 336 341 347 341 339 328 321 310 298 290 283 250 215 202 206 202 194 186 181 218 264 280 277 262 234 232 212 202 194 187 185 182 178 175 249 281 280 269 264 258 260
353 22 21 11 339 357 329 2 345 331 344 347 342 338 329 320 315 315 306 290 271 246 258 254 246 210 216 242 226 236 261 213 233 224 222 212 198 193 191 192 193 196 187 200 220 242 247 254 249
347 350 345 358 357 346 337 345 354 344 345 345 347 352 350 342 334 327 320 306 281 260 254 259 261 262 249 235 236 241 270 281 280 273 226 215 206 197 196 203 222 211 198 209 223 242 239 246 252
337 338 338 344 345 343 8 338 349 347 5 359 356 356 354 352 349 344 335 322 310 279 260 257 261 265 270 253 251 238 253 277 282 282 280 265 279 273 214 266 252 257 225 227 244 247 254 255 257
335 331 327 329 331 335 345 338 333 9 3 4 3 0 359 359 357 354 351 345 330 315 280 264 262 261 272 269 264 253 253 272 274 281 283 282 277 279 260 272 262 260 258 256 257 256 258 265 270
325 326 320 318 321 324 326 324 334 7 19 0 354 355 358 0 360 357 353 350 348 341 330 304 277 266 268 278 277 272 277 281 281 282 282 281 281 281 280 275 267 264 263 263 264 261 261 266 270
322 318 324 313 313 311 316 325 334 338 351 351 346 344 345 348 350 352 352 350 346 343 341 331 322 303 285 277 275 281 283 281 282 282 282 282 283 283 281 278 271 267 266 265 265 263 262 266 268
313 317 308 311 304 303 307 302 308 304 321 331 337 342 343 343 345 345 345 344 342 338 334 336 331 324 312 304 297 283 277 281 283 282 282 282 283 282 282 280 276 271 268 267 266 265 266 267 268
310 307 306 306 303 299 296 297 311 295 309 321 330 336 340 342 342 341 340 340 339 338 336 331 327 323 322 317 310 305 290 285 284 283 282 282 282 283 282 280 278 275 271 269 267 267 267 266 267
310 304 304 295 294 297 296 294 311 311 312 315 318 326 331 335 336 338 337 335 335 334 331 330 328 324 323 319 318 321 320 307 291 286 284 283 283 283 283 282 280 277 273 270 268 267 267 267 267